AA7DG Weather Reports


time (UTC)temp
F
wind
direction
speed
knots
gust
knots
rain 1hr
in
rain 24hr
in
rain mn
in
humidity
%
barometer
mb
20260504184501 76 108 1.7 3.5 0.00 0.00 0.00 31 1010.2
20260504184001 76 351 1.7 3.5 0.00 0.00 0.00 32 1010.2
20260504183502 76 22 1.7 4.3 0.00 0.00 0.00 31 1010.2
20260504183002 76 279 1.7 2.6 0.00 0.00 0.00 32 1010.2
20260504182501 76 133 1.7 3.5 0.00 0.00 0.00 31 1010.2
20260504182001 76 67 1.7 3.5 0.00 0.00 0.00 32 1010.2
20260504181506 75 91 0.9 2.6 0.00 0.00 0.00 32 1010.2
20260504181001 74 135 1.7 3.5 0.00 0.00 0.00 33 1010.2
20260504180506 73 337 1.7 3.5 0.00 0.00 0.00 34 1010.2
20260504180002 72 325 1.7 3.5 0.00 0.00 0.00 34 1010.2
20260504175502 72 354 1.7 3.5 0.00 0.00 0.00 35 1010.5
20260504175001 72 350 1.7 4.3 0.00 0.00 0.00 36 1010.5
20260504174501 71 331 1.7 3.5 0.00 0.00 0.00 36 1010.5
20260504174001 71 38 1.7 3.5 0.00 0.00 0.00 38 1010.5
20260504173501 70 334 1.7 3.5 0.00 0.00 0.00 38 1010.5
20260504173006 70 327 1.7 3.5 0.00 0.00 0.00 38 1010.5
20260504172506 69 308 1.7 2.6 0.00 0.00 0.00 39 1010.5
20260504172000 69 317 1.7 3.5 0.00 0.00 0.00 39 1010.5
20260504171501 69 312 1.7 3.5 0.00 0.00 0.00 39 1010.5
20260504171000 68 43 0.9 1.7 0.00 0.00 0.00 41 1010.5
20260504170512 67 320 1.7 2.6 0.00 0.00 0.00 41 1010.5
20260504151011 56 344 0.9 1.7 0.00 0.00 0.00 70 1011.2
20260504150502 55 260 0.9 0.9 0.00 0.00 0.00 72 1011.2
20260504141001 48 128 0.0 0.0 0.00 0.00 0.00 88 1010.9
20260504140501 47 132 0.0 0.9 0.00 0.00 0.00 89 1010.9
20260504130501 45 97 0.0 0.0 0.00 0.00 0.00 90 1010.5
20260504110501 48 313 0.0 0.0 0.00 0.00 0.00 85 1010.2
20260504100511 49 30 0.0 0.0 0.00 0.00 0.00 82 1009.8
20260504081510 54 4 0.0 0.0 0.00 0.00 0.00 75 1009.8
20260504081006 54 4 0.0 0.0 0.00 0.00 0.00 74 1009.8
20260504080507 54 4 0.0 0.0 0.00 0.00 0.00 73 1009.8
20260504050502 63 50 0.0 0.0 0.00 0.00 0.00 55 1009.5
20260504050006 64 50 0.0 0.0 0.00 0.00 0.00 52 1009.5
20260504045501 64 50 0.0 0.0 0.00 0.00 0.00 52 1009.5
20260504045007 65 50 0.0 0.9 0.00 0.00 0.00 51 1009.5
20260504044501 65 51 0.9 1.7 0.00 0.00 0.00 50 1009.5
20260504044001 65 54 0.0 1.7 0.00 0.00 0.00 50 1009.5
20260504043500 66 134 0.0 0.0 0.00 0.00 0.00 48 1009.5
20260504043004 66 133 0.0 0.9 0.00 0.00 0.00 47 1009.5
20260504042001 67 199 0.0 0.0 0.00 0.00 0.00 47 1009.5
20260504041502 67 199 0.0 0.0 0.00 0.00 0.00 45 1009.5
20260504041001 67 199 0.0 0.0 0.00 0.00 0.00 45 1009.5
20260504040501 67 199 0.0 0.0 0.00 0.00 0.00 45 1009.3
20260504040001 68 203 0.0 0.9 0.00 0.00 0.00 45 1009.2
20260504035502 68 200 0.0 0.9 0.00 0.00 0.00 46 1009.1
20260504035006 69 209 0.0 0.9 0.00 0.00 0.00 44 1009.1
20260504034501 69 222 0.0 0.9 0.00 0.00 0.00 43 1009.1
20260504034001 70 221 0.0 0.0 0.00 0.00 0.00 41 1009.1
20260504033501 70 223 0.0 0.0 0.00 0.00 0.00 40 1009.1
20260504033001 71 221 0.0 0.0 0.00 0.00 0.00 40 1009.1
20260504032501 71 221 0.0 0.9 0.00 0.00 0.00 38 1009.1
20260504032007 72 222 0.0 0.9 0.00 0.00 0.00 40 1009.1
20260504031506 73 218 0.9 0.9 0.00 0.00 0.00 38 1009.1
20260504031008 74 249 0.0 0.9 0.00 0.00 0.00 35 1009.0
20260504030508 75 251 0.0 0.0 0.00 0.00 0.00 34 1009.0
20260504030006 75 251 0.0 0.0 0.00 0.00 0.00 33 1008.9
20260504025502 76 251 0.0 0.0 0.00 0.00 0.00 33 1008.8
20260504025008 77 253 0.0 0.0 0.00 0.00 0.00 32 1008.8
20260504024501 78 254 0.0 0.0 0.00 0.00 0.00 30 1008.8
20260504023502 80 257 0.0 0.9 0.00 0.00 0.00 27 1008.8
20260504023001 80 258 1.7 1.7 0.00 0.00 0.00 25 1008.8
20260504022502 80 250 0.9 1.7 0.00 0.00 0.00 25 1008.8
20260504022006 80 258 0.9 1.7 0.00 0.00 0.00 25 1008.8
20260504021507 81 271 1.7 3.5 0.00 0.00 0.00 24 1009.1
20260504021002 81 263 1.7 2.6 0.00 0.00 0.00 24 1009.1
20260504020501 81 268 0.9 1.7 0.00 0.00 0.00 24 1009.1
20260504020002 81 297 1.7 4.3 0.00 0.00 0.00 23 1009.1
20260504015501 81 284 1.7 4.3 0.00 0.00 0.00 23 1009.1
20260504015007 82 267 1.7 3.5 0.00 0.00 0.00 23 1009.1
20260504014504 82 291 1.7 4.3 0.00 0.00 0.00 23 1009.1
20260504014002 82 270 1.7 2.6 0.00 0.00 0.00 23 1009.2
20260504013500 82 242 1.7 2.6 0.00 0.00 0.00 23 1009.5
20260504013001 82 294 1.7 4.3 0.00 0.00 0.00 23 1009.5
20260504012506 82 311 1.7 3.5 0.00 0.00 0.00 23 1009.5
20260504012001 82 283 1.7 4.3 0.00 0.00 0.00 23 1009.5
20260504011501 82 274 1.7 3.5 0.00 0.00 0.00 22 1009.5
20260504011002 82 278 2.6 4.3 0.00 0.00 0.00 22 1009.5
20260504010500 82 245 2.6 4.3 0.00 0.00 0.00 22 1009.5
20260504010001 83 283 2.6 6.1 0.00 0.00 0.00 22 1009.5
20260504005500 83 259 0.9 2.6 0.00 0.00 0.00 22 1009.7
20260504005001 82 296 1.7 3.5 0.00 0.00 0.00 22 1009.8
20260504004506 82 282 3.5 5.2 0.00 0.00 0.00 22 1009.8
20260504004006 82 274 3.5 7.0 0.00 0.00 0.00 22 1009.8
20260504003501 83 296 2.6 4.3 0.00 0.00 0.00 22 1009.8
20260504003001 83 280 3.5 6.1 0.00 0.00 0.00 21 1009.8
20260504002506 83 229 0.9 1.7 0.00 0.00 0.00 21 1009.8
20260504002010 83 161 1.7 4.3 0.00 0.00 0.00 21 1009.8
20260504001502 83 202 2.6 4.3 0.00 0.00 0.00 21 1010.1
20260504001007 84 213 1.7 4.3 0.00 0.00 0.00 21 1010.2
20260504000506 83 265 2.6 5.2 0.00 0.00 0.00 21 1010.2
20260504000001 84 256 2.6 5.2 0.00 0.00 0.00 20 1010.2
20260503235506 85 263 2.6 4.3 0.00 0.00 0.00 20 1010.2
20260503235000 85 215 1.7 3.5 0.00 0.00 0.00 20 1010.2
20260503234502 85 231 1.7 3.5 0.00 0.00 0.00 20 1010.2
20260503234006 85 262 0.9 3.5 0.00 0.00 0.00 20 1010.4
20260503233500 84 311 2.6 4.3 0.00 0.00 0.00 20 1010.5
20260503233001 84 111 1.7 3.5 0.00 0.00 0.00 20 1010.5
20260503232506 83 248 1.7 5.2 0.00 0.00 0.00 20 1010.5
20260503232001 84 263 1.7 6.1 0.00 0.00 0.00 21 1010.5
20260503231501 83 235 2.6 6.1 0.00 0.00 0.00 21 1010.5
20260503231002 84 251 2.6 6.1 0.00 0.00 0.00 20 1010.8
20260503230501 84 255 2.6 5.2 0.00 0.00 0.00 21 1010.8
20260503230009 84 274 2.6 4.3 0.00 0.00 0.00 20 1010.8
20260503225502 84 199 1.7 4.3 0.00 0.00 0.00 20 1010.8
20260503225001 83 104 1.7 3.5 0.00 0.00 0.00 20 1010.8
20260503224506 83 306 2.6 6.1 0.00 0.00 0.00 20 1011.1
20260503224001 84 313 3.5 6.1 0.00 0.00 0.00 20 1011.2
20260503223505 83 43 1.7 2.6 0.00 0.00 0.00 21 1011.2
20260503223001 83 331 2.6 5.2 0.00 0.00 0.00 19 1011.2
20260503222501 84 331 3.5 6.1 0.00 0.00 0.00 19 1011.2
20260503222024 85 358 1.7 2.6 0.00 0.00 0.00 18 1011.2
20260503221501 85 256 1.7 2.6 0.00 0.00 0.00 19 1011.3
20260503221001 85 97 1.7 3.5 0.00 0.00 0.00 19 1011.5
20260503220507 84 33 0.9 1.7 0.00 0.00 0.00 19 1011.5
20260503220018 83 193 2.6 4.3 0.00 0.00 0.00 19 1011.5
20260503215511 83 203 2.6 5.2 0.00 0.00 0.00 19 1011.7
20260503215001 83 189 2.6 6.1 0.00 0.00 0.00 19 1011.9
20260503214505 82 249 2.6 4.3 0.00 0.00 0.00 19 1011.9
20260503214011 83 293 2.6 5.2 0.00 0.00 0.00 18 1011.9
20260503213506 83 269 2.6 6.1 0.00 0.00 0.00 19 1012.0
20260503213001 83 315 1.7 4.3 0.00 0.00 0.00 20 1012.2
20260503212501 82 307 2.6 6.1 0.00 0.00 0.00 20 1012.2
20260503212018 83 248 2.6 4.3 0.00 0.00 0.00 22 1012.2
20260503211517 82 227 1.7 3.5 0.00 0.00 0.00 22 1012.2
20260503211002 82 275 1.7 4.3 0.00 0.00 0.00 22 1012.4
20260503210507 82 236 1.7 4.3 0.00 0.00 0.00 22 1012.5
20260503210001 82 197 1.7 3.5 0.00 0.00 0.00 22 1012.5
20260503205505 82 248 1.7 3.5 0.00 0.00 0.00 23 1012.6
20260503205002 81 213 1.7 3.5 0.00 0.00 0.00 24 1012.9
20260503204506 81 207 1.7 4.3 0.00 0.00 0.00 24 1012.9
20260503204000 81 294 2.6 5.2 0.00 0.00 0.00 24 1012.9
20260503203506 80 225 2.6 5.2 0.00 0.00 0.00 25 1012.9
20260503203006 80 301 3.5 6.1 0.00 0.00 0.00 24 1012.9
20260503202508 82 243 2.6 4.3 0.00 0.00 0.00 24 1013.2
20260503202001 80 49 1.7 2.6 0.00 0.00 0.00 25 1013.2
20260503201002 80 127 2.6 4.3 0.00 0.00 0.00 24 1013.2
20260503200501 80 185 1.7 3.5 0.00 0.00 0.00 25 1013.3
20260503195518 79 289 2.6 4.3 0.00 0.00 0.00 24 1013.5
20260503195002 80 274 2.6 4.3 0.00 0.00 0.00 25 1013.5
20260503194501 80 213 2.6 3.5 0.00 0.00 0.00 25 1013.5
20260503194002 80 152 2.6 4.3 0.00 0.00 0.00 24 1013.5
20260503193505 80 169 1.7 3.5 0.00 0.00 0.00 25 1013.8
20260503193006 80 5 1.7 2.6 0.00 0.00 0.00 25 1013.9
20260503192501 78 263 1.7 3.5 0.00 0.00 0.00 26 1013.9
20260503192007 77 240 1.7 3.5 0.00 0.00 0.00 26 1013.9
20260503191507 77 347 1.7 3.5 0.00 0.00 0.00 27 1013.9
20260503191001 76 351 1.7 4.3 0.00 0.00 0.00 28 1014.2
20260503190502 77 307 2.6 6.1 0.00 0.00 0.00 27 1014.2